Time,TemperatureF,DewpointF,PressureIn,WindDirection,WindDirectionDegrees,WindSpeedMPH,WindSpeedGustMPH,Humidity,HourlyPrecipIn,Conditions,Clouds,dailyrainin,SolarRadiationWatts/m^2,SoftwareType,DateUTC
2013-03-28 00:00:00,64.1,59.2,30.16,South,174,6.9,6.9,84,0.00,CLR,SKC,0.00,0.0,WeatherDisplay:10.37,2013-03-28 06:00:00,
2013-03-28 00:05:00,64.2,59.3,30.16,SSE,160,4.6,4.6,84,0.00,CLR,SKC,0.00,0.0,WeatherDisplay:10.37,2013-03-28 06:05:00,
2013-03-28 00:10:00,64.2,59.3,30.16,SE,140,4.6,4.6,84,0.00,CLR,SKC,0.00,0.0,WeatherDisplay:10.37,2013-03-28 06:10:00,
2013-03-28 00:15:00,64.3,59.4,30.16,SSE,165,3.5,3.5,84,0.00,CLR,SKC,0.00,0.0,WeatherDisplay:10.37,2013-03-28 06:15:00,
2013-03-28 00:20:00,64.3,59.4,30.16,SSE,163,8.0,8.0,84,0.00,CLR,SKC,0.00,0.0,WeatherDisplay:10.37,2013-03-28 06:20:00,
2013-03-28 00:25:00,64.3,59.4,30.16,SSE,161,3.5,3.5,84,0.00,CLR,SKC,0.00,0.0,WeatherDisplay:10.37,2013-03-28 06:25:00,
2013-03-28 00:30:00,64.3,59.4,30.16,SSE,161,8.1,8.1,84,0.00,CLR,SKC,0.00,0.0,WeatherDisplay:10.37,2013-03-28 06:30:00,
2013-03-28 00:35:00,64.3,59.0,30.16,SSE,150,3.5,3.5,83,0.00,CLR,SKC,0.00,0.0,WeatherDisplay:10.37,2013-03-28 06:35:00,
2013-03-28 00:40:00,64.3,59.4,30.16,SE,132,4.6,4.6,84,0.00,CLR,SKC,0.00,0.0,WeatherDisplay:10.37,2013-03-28 06:40:00,
2013-03-28 00:45:00,64.4,59.1,30.16,ESE,119,6.9,6.9,83,0.00,CLR,SKC,0.00,0.0,WeatherDisplay:10.37,2013-03-28 06:45:00,
2013-03-28 00:50:00,64.3,59.0,30.16,SE,135,6.0,6.0,83,0.00,CLR,SKC,0.00,0.0,WeatherDisplay:10.37,2013-03-28 06:50:00,
2013-03-28 00:55:00,64.4,59.1,30.16,SSE,165,4.0,4.0,83,0.00,CLR,SKC,0.00,0.0,WeatherDisplay:10.37,2013-03-28 06:55:00,
2013-03-28 01:00:00,64.4,59.1,30.16,South,173,4.6,4.6,83,0.00,CLR,SKC,0.00,0.0,WeatherDisplay:10.37,2013-03-28 07:00:00,
2013-03-28 01:05:00,64.4,59.1,30.16,South,179,4.6,4.6,83,0.00,CLR,SKC,0.00,0.0,WeatherDisplay:10.37,2013-03-28 07:05:00,
2013-03-28 01:10:00,64.4,59.1,30.16,SE,146,4.6,4.6,83,0.00,CLR,SKC,0.00,0.0,WeatherDisplay:10.37,2013-03-28 07:10:00,
2013-03-28 01:15:00,64.4,59.1,30.16,SSE,166,3.5,3.5,83,0.00,CLR,SKC,0.00,0.0,WeatherDisplay:10.37,2013-03-28 07:15:00,
2013-03-28 01:20:00,64.5,59.2,30.16,SSE,159,5.8,5.8,83,0.00,CLR,SKC,0.00,0.0,WeatherDisplay:10.37,2013-03-28 07:20:00,
2013-03-28 01:25:00,64.5,59.6,30.15,SSE,161,4.6,4.6,84,0.00,CLR,SKC,0.00,0.0,WeatherDisplay:10.37,2013-03-28 07:25:00,
2013-03-28 01:30:00,64.5,59.6,30.15,SSE,163,2.3,2.3,84,0.00,CLR,SKC,0.00,0.0,WeatherDisplay:10.37,2013-03-28 07:30:00,
2013-03-28 01:35:00,64.5,59.6,30.15,SSE,156,5.8,5.8,84,0.00,CLR,SKC,0.00,0.0,WeatherDisplay:10.37,2013-03-28 07:35:00,
2013-03-28 01:40:00,64.5,59.6,30.15,SSE,167,3.5,3.5,84,0.00,CLR,SKC,0.00,0.0,WeatherDisplay:10.37,2013-03-28 07:40:00,
2013-03-28 01:45:00,64.5,59.6,30.15,SE,142,3.5,3.5,84,0.00,CLR,SKC,0.00,0.0,WeatherDisplay:10.37,2013-03-28 07:45:00,
2013-03-28 01:50:00,64.5,59.6,30.15,SSW,202,4.6,4.6,84,0.00,CLR,SKC,0.00,0.0,WeatherDisplay:10.37,2013-03-28 07:50:00,
2013-03-28 01:55:00,64.5,59.2,30.15,South,182,4.6,4.6,83,0.00,CLR,SKC,0.00,0.0,WeatherDisplay:10.37,2013-03-28 07:55:00,
2013-03-28 02:00:00,64.5,59.2,30.15,SSE,167,5.0,5.0,83,0.00,CLR,SKC,0.00,0.0,WeatherDisplay:10.37,2013-03-28 08:00:00,
2013-03-28 02:05:00,64.6,59.3,30.15,SSW,196,2.3,2.3,83,0.00,CLR,SKC,0.00,0.0,WeatherDisplay:10.37,2013-03-28 08:05:00,
2013-03-28 02:10:00,64.6,59.3,30.15,SSE,156,5.8,5.8,83,0.00,CLR,SKC,0.00,0.0,WeatherDisplay:10.37,2013-03-28 08:10:00,
2013-03-28 02:15:00,64.6,59.3,30.15,South,170,3.5,3.5,83,0.00,CLR,SKC,0.00,0.0,WeatherDisplay:10.37,2013-03-28 08:15:00,
2013-03-28 02:20:00,64.7,59.4,30.15,South,174,4.6,4.6,83,0.00,CLR,SKC,0.00,0.0,WeatherDisplay:10.37,2013-03-28 08:20:00,
2013-03-28 02:25:00,64.7,59.4,30.14,SSE,151,3.5,3.5,83,0.00,CLR,SKC,0.00,0.0,WeatherDisplay:10.37,2013-03-28 08:25:00,
2013-03-28 02:30:00,64.7,59.4,30.14,SSE,154,5.0,5.0,83,0.00,CLR,SKC,0.00,0.0,WeatherDisplay:10.37,2013-03-28 08:30:00,
2013-03-28 02:35:00,64.7,59.4,30.14,SE,144,4.0,4.0,83,0.00,CLR,SKC,0.00,0.0,WeatherDisplay:10.37,2013-03-28 08:35:00,
2013-03-28 02:40:00,64.7,59.4,30.14,SE,145,5.8,5.8,83,0.00,CLR,SKC,0.00,0.0,WeatherDisplay:10.37,2013-03-28 08:40:00,
2013-03-28 02:45:00,64.7,59.4,30.14,SSE,158,10.4,10.4,83,0.00,CLR,SKC,0.00,0.0,WeatherDisplay:10.37,2013-03-28 08:45:00,
2013-03-28 02:50:00,64.7,59.4,30.14,SSE,162,5.8,5.8,83,0.00,CLR,SKC,0.00,0.0,WeatherDisplay:10.37,2013-03-28 08:50:00,
2013-03-28 02:55:00,64.7,59.4,30.13,SSE,148,6.0,6.0,83,0.00,CLR,SKC,0.00,0.0,WeatherDisplay:10.37,2013-03-28 08:55:00,
2013-03-28 03:00:00,64.7,59.4,30.13,SSE,156,9.2,9.2,83,0.00,CLR,SKC,0.00,0.0,WeatherDisplay:10.37,2013-03-28 09:00:00,
2013-03-28 03:06:00,64.7,59.4,30.13,SSE,154,6.9,6.9,83,0.00,CLR,SKC,0.00,0.0,WeatherDisplay:10.37,2013-03-28 09:06:00,
2013-03-28 03:11:00,64.7,59.4,30.12,SSE,165,10.4,10.4,83,0.00,CLR,SKC,0.00,0.0,WeatherDisplay:10.37,2013-03-28 09:11:00,
2013-03-28 03:16:00,64.7,59.4,30.12,SSE,159,5.8,5.8,83,0.00,CLR,SKC,0.00,0.0,WeatherDisplay:10.37,2013-03-28 09:16:00,
2013-03-28 03:21:00,64.7,59.4,30.12,SE,134,10.4,10.4,83,0.00,CLR,SKC,0.00,0.0,WeatherDisplay:10.37,2013-03-28 09:21:00,
2013-03-28 03:26:00,64.7,59.4,30.11,SE,144,11.5,11.5,83,0.00,CLR,SKC,0.00,0.0,WeatherDisplay:10.37,2013-03-28 09:26:00,
2013-03-28 03:31:00,64.7,59.4,30.11,SSE,153,5.8,5.8,83,0.00,CLR,SKC,0.00,0.0,WeatherDisplay:10.37,2013-03-28 09:31:00,
2013-03-28 03:36:00,64.7,59.8,30.11,SSE,150,9.2,9.2,84,0.00,CLR,SKC,0.00,0.0,WeatherDisplay:10.37,2013-03-28 09:36:00,
2013-03-28 03:41:00,64.7,59.8,30.11,SSE,152,5.8,5.8,84,0.00,CLR,SKC,0.00,0.0,WeatherDisplay:10.37,2013-03-28 09:41:00,
2013-03-28 03:46:00,64.7,59.8,30.11,South,178,6.9,6.9,84,0.00,CLR,SKC,0.00,0.0,WeatherDisplay:10.37,2013-03-28 09:46:00,
2013-03-28 03:51:00,64.6,59.7,30.11,ESE,118,5.0,5.0,84,0.00,CLR,SKC,0.00,0.0,WeatherDisplay:10.37,2013-03-28 09:51:00,
2013-03-28 03:56:00,64.6,59.7,30.12,SSE,148,6.9,6.9,84,0.00,CLR,SKC,0.00,0.0,WeatherDisplay:10.37,2013-03-28 09:56:00,
2013-03-28 04:01:00,64.6,59.7,30.12,SE,142,5.8,5.8,84,0.00,CLR,SKC,0.00,0.0,WeatherDisplay:10.37,2013-03-28 10:01:00,
2013-03-28 04:06:00,64.6,59.7,30.12,ESE,121,6.9,6.9,84,0.00,CLR,SKC,0.00,0.0,WeatherDisplay:10.37,2013-03-28 10:06:00,
2013-03-28 04:11:00,64.6,59.7,30.12,SSE,153,9.2,9.2,84,0.00,CLR,SKC,0.00,0.0,WeatherDisplay:10.37,2013-03-28 10:11:00,
2013-03-28 04:16:00,64.7,59.8,30.12,SE,142,6.9,6.9,84,0.00,CLR,SKC,0.00,0.0,WeatherDisplay:10.37,2013-03-28 10:16:00,
2013-03-28 04:21:00,64.7,59.8,30.12,SSE,150,5.8,5.8,84,0.00,CLR,SKC,0.00,0.0,WeatherDisplay:10.37,2013-03-28 10:21:00,
2013-03-28 04:26:00,64.7,59.8,30.12,ESE,115,5.8,5.8,84,0.00,CLR,SKC,0.00,0.0,WeatherDisplay:10.37,2013-03-28 10:26:00,
2013-03-28 04:31:00,64.7,59.8,30.12,South,171,5.8,5.8,84,0.00,CLR,SKC,0.00,0.0,WeatherDisplay:10.37,2013-03-28 10:31:00,
2013-03-28 04:36:00,64.7,59.8,30.12,SE,125,5.8,5.8,84,0.00,CLR,SKC,0.00,0.0,WeatherDisplay:10.37,2013-03-28 10:36:00,
2013-03-28 04:41:00,64.7,59.8,30.11,SE,143,6.9,6.9,84,0.00,CLR,SKC,0.00,0.0,WeatherDisplay:10.37,2013-03-28 10:41:00,
2013-03-28 04:46:00,64.6,59.7,30.11,SE,140,5.8,5.8,84,0.00,CLR,SKC,0.00,0.0,WeatherDisplay:10.37,2013-03-28 10:46:00,
2013-03-28 04:51:00,64.6,59.7,30.11,SE,124,5.8,5.8,84,0.00,CLR,SKC,0.00,0.0,WeatherDisplay:10.37,2013-03-28 10:51:00,
2013-03-28 04:56:00,64.7,59.8,30.11,SE,135,6.9,6.9,84,0.00,CLR,SKC,0.00,0.0,WeatherDisplay:10.37,2013-03-28 10:56:00,
2013-03-28 05:01:00,64.7,59.8,30.11,ESE,121,7.0,7.0,84,0.00,CLR,SKC,0.00,0.0,WeatherDisplay:10.37,2013-03-28 11:01:00,
2013-03-28 05:06:00,64.7,60.1,30.11,SE,144,6.9,6.9,85,0.00,CLR,SKC,0.00,0.0,WeatherDisplay:10.37,2013-03-28 11:06:00,
2013-03-28 05:11:00,64.7,60.1,30.11,ESE,112,6.9,6.9,85,0.00,CLR,SKC,0.00,0.0,WeatherDisplay:10.37,2013-03-28 11:11:00,
2013-03-28 05:16:00,64.7,60.1,30.11,SE,125,5.8,5.8,85,0.00,CLR,SKC,0.00,0.0,WeatherDisplay:10.37,2013-03-28 11:16:00,
2013-03-28 05:21:00,64.7,60.1,30.11,ESE,105,4.6,4.6,85,0.00,CLR,SKC,0.00,0.0,WeatherDisplay:10.37,2013-03-28 11:21:00,
2013-03-28 05:26:00,64.7,60.1,30.11,SE,135,9.2,9.2,85,0.00,CLR,SKC,0.00,0.0,WeatherDisplay:10.37,2013-03-28 11:26:00,
2013-03-28 05:31:00,64.7,60.1,30.11,ESE,105,9.2,9.2,85,0.00,CLR,SKC,0.00,0.0,WeatherDisplay:10.37,2013-03-28 11:31:00,
2013-03-28 05:36:00,64.7,60.1,30.11,SE,144,11.5,11.5,85,0.00,CLR,SKC,0.00,0.0,WeatherDisplay:10.37,2013-03-28 11:36:00,
2013-03-28 05:41:00,64.8,60.2,30.11,SE,142,6.9,6.9,85,0.00,CLR,SKC,0.00,0.0,WeatherDisplay:10.37,2013-03-28 11:41:00,
2013-03-28 05:46:00,64.7,60.1,30.11,SE,135,6.9,6.9,85,0.00,CLR,SKC,0.00,0.0,WeatherDisplay:10.37,2013-03-28 11:46:00,
2013-03-28 05:51:00,64.8,60.2,30.11,SSE,162,10.4,10.4,85,0.00,CLR,SKC,0.00,0.0,WeatherDisplay:10.37,2013-03-28 11:51:00,
2013-03-28 05:56:00,64.8,60.2,30.12,ESE,121,9.2,9.2,85,0.00,CLR,SKC,0.00,0.0,WeatherDisplay:10.37,2013-03-28 11:56:00,
2013-03-28 06:01:00,64.8,60.2,30.12,ESE,119,8.1,8.1,85,0.00,CLR,SKC,0.00,0.0,WeatherDisplay:10.37,2013-03-28 12:01:00,
2013-03-28 06:06:00,64.8,60.2,30.12,ESE,117,5.8,5.8,85,0.00,CLR,SKC,0.00,0.0,WeatherDisplay:10.37,2013-03-28 12:06:00,
2013-03-28 06:11:00,64.8,60.5,30.13,ESE,121,10.4,10.4,86,0.00,CLR,SKC,0.00,0.0,WeatherDisplay:10.37,2013-03-28 12:11:00,
2013-03-28 06:16:00,64.8,60.5,30.13,SSE,148,11.5,11.5,86,0.00,CLR,SKC,0.00,0.0,WeatherDisplay:10.37,2013-03-28 12:16:00,
2013-03-28 06:21:00,64.8,60.5,30.13,ESE,117,10.4,10.4,86,0.00,CLR,SKC,0.00,0.0,WeatherDisplay:10.37,2013-03-28 12:21:00,
2013-03-28 06:26:00,64.8,60.5,30.13,SE,130,7.0,7.0,86,0.00,CLR,SKC,0.00,0.0,WeatherDisplay:10.37,2013-03-28 12:26:00,
2013-03-28 06:31:00,64.9,60.6,30.13,ESE,123,5.8,5.8,86,0.00,CLR,SKC,0.00,0.0,WeatherDisplay:10.37,2013-03-28 12:31:00,
2013-03-28 06:36:00,64.9,60.6,30.13,SE,126,6.9,6.9,86,0.00,CLR,SKC,0.00,5.0,WeatherDisplay:10.37,2013-03-28 12:36:00,
2013-03-28 06:41:00,64.9,60.6,30.13,SE,144,4.6,4.6,86,0.00,CLR,SKC,0.00,9.0,WeatherDisplay:10.37,2013-03-28 12:41:00,
2013-03-28 06:46:00,64.9,60.6,30.13,SE,128,6.9,6.9,86,0.00,CLR,SKC,0.00,14.0,WeatherDisplay:10.37,2013-03-28 12:46:00,
2013-03-28 06:51:00,65.0,60.7,30.13,ESE,115,5.8,5.8,86,0.00,CLR,SKC,0.00,19.0,WeatherDisplay:10.37,2013-03-28 12:51:00,
2013-03-28 06:56:00,65.0,60.7,30.13,SE,127,9.2,9.2,86,0.00,CLR,SKC,0.00,25.0,WeatherDisplay:10.37,2013-03-28 12:56:00,
2013-03-28 07:01:00,65.1,60.8,30.13,ESE,119,5.0,9.0,86,0.00,CLR,SKC,0.00,30.0,WeatherDisplay:10.37,2013-03-28 13:01:00,
2013-03-28 07:06:00,65.2,60.6,30.13,ESE,116,6.9,6.9,85,0.00,CLR,SKC,0.00,37.0,WeatherDisplay:10.37,2013-03-28 13:06:00,
2013-03-28 07:11:00,65.2,60.6,30.14,ESE,114,7.0,7.0,85,0.00,CLR,SKC,0.00,40.0,WeatherDisplay:10.37,2013-03-28 13:11:00,
2013-03-28 07:16:00,65.3,60.7,30.14,SSE,153,6.9,6.9,85,0.00,CLR,SKC,0.00,51.0,WeatherDisplay:10.37,2013-03-28 13:16:00,
2013-03-28 07:21:00,65.4,60.8,30.14,ESE,108,6.9,6.9,85,0.00,CLR,SKC,0.00,56.0,WeatherDisplay:10.37,2013-03-28 13:21:00,
2013-03-28 07:26:00,65.5,60.9,30.14,East,101,11.5,11.5,85,0.00,CLR,SKC,0.00,62.0,WeatherDisplay:10.37,2013-03-28 13:26:00,
2013-03-28 07:31:00,65.5,61.2,30.14,ESE,109,6.9,6.9,86,0.00,CLR,SKC,0.00,65.0,WeatherDisplay:10.37,2013-03-28 13:31:00,
2013-03-28 07:36:00,65.6,61.3,30.14,ESE,113,6.9,6.9,86,0.00,CLR,SKC,0.00,76.0,WeatherDisplay:10.37,2013-03-28 13:36:00,
2013-03-28 07:41:00,65.6,61.3,30.15,East,99,5.0,5.0,86,0.00,CLR,SKC,0.00,83.0,WeatherDisplay:10.37,2013-03-28 13:41:00,
2013-03-28 07:46:00,65.3,61.3,30.15,ENE,74,5.8,5.8,87,0.00,CLR,SKC,0.00,95.0,WeatherDisplay:10.37,2013-03-28 13:46:00,
2013-03-28 07:51:00,65.2,61.6,30.15,East,96,3.5,3.5,88,0.00,CLR,SKC,0.00,104.0,WeatherDisplay:10.37,2013-03-28 13:51:00,
2013-03-28 07:56:00,65.2,61.6,30.15,East,92,4.6,4.6,88,0.00,CLR,SKC,0.00,97.0,WeatherDisplay:10.37,2013-03-28 13:56:00,
2013-03-28 08:01:00,65.3,61.7,30.15,East,92,5.0,5.0,88,0.00,CLR,SKC,0.00,104.0,WeatherDisplay:10.37,2013-03-28 14:01:00,
2013-03-28 08:06:00,65.3,61.7,30.15,ESE,108,5.8,5.8,88,0.00,CLR,SKC,0.00,116.0,WeatherDisplay:10.37,2013-03-28 14:06:00,
2013-03-28 08:11:00,65.4,61.8,30.16,East,83,5.8,5.8,88,0.00,CLR,SKC,0.00,141.0,WeatherDisplay:10.37,2013-03-28 14:11:00,
2013-03-28 08:16:00,65.5,61.9,30.16,ESE,109,4.6,4.6,88,0.00,CLR,SKC,0.00,163.0,WeatherDisplay:10.37,2013-03-28 14:16:00,
2013-03-28 08:21:00,65.7,62.0,30.16,ESE,109,6.9,6.9,88,0.00,CLR,SKC,0.00,181.0,WeatherDisplay:10.37,2013-03-28 14:21:00,
2013-03-28 08:26:00,65.8,62.1,30.16,ESE,114,6.9,6.9,88,0.00,CLR,SKC,0.00,178.0,WeatherDisplay:10.37,2013-03-28 14:26:00,
2013-03-28 08:31:00,65.9,62.2,30.16,East,96,5.8,5.8,88,0.00,CLR,SKC,0.00,200.0,WeatherDisplay:10.37,2013-03-28 14:31:00,
2013-03-28 08:36:00,66.1,62.1,30.16,ESE,109,8.0,8.0,87,0.00,CLR,SKC,0.00,265.0,WeatherDisplay:10.37,2013-03-28 14:36:00,
2013-03-28 08:41:00,66.6,62.6,30.16,East,101,9.2,9.2,87,0.00,CLR,SKC,0.00,459.0,WeatherDisplay:10.37,2013-03-28 14:41:00,
2013-03-28 08:46:00,66.9,62.6,30.16,SE,124,6.9,6.9,86,0.00,CLR,SKC,0.00,492.0,WeatherDisplay:10.37,2013-03-28 14:46:00,
2013-03-28 08:51:00,67.4,62.7,30.16,East,99,6.9,6.9,85,0.00,CLR,SKC,0.00,466.0,WeatherDisplay:10.37,2013-03-28 14:51:00,
2013-03-28 08:56:00,67.6,62.6,30.16,ESE,121,13.0,13.0,84,0.00,CLR,SKC,0.00,552.0,WeatherDisplay:10.37,2013-03-28 14:56:00,
2013-03-28 09:01:00,67.7,62.7,30.16,SSE,151,12.0,12.0,84,0.00,CLR,SKC,0.00,390.0,WeatherDisplay:10.37,2013-03-28 15:01:00,
2013-03-28 09:06:00,68.0,62.6,30.16,SE,138,11.5,11.5,83,0.00,CLR,SKC,0.00,605.0,WeatherDisplay:10.37,2013-03-28 15:06:00,
2013-03-28 09:11:00,68.1,62.4,30.17,ESE,110,9.2,9.2,82,0.00,CLR,SKC,0.00,431.0,WeatherDisplay:10.37,2013-03-28 15:11:00,
2013-03-28 09:16:00,68.3,62.9,30.17,ESE,119,10.4,10.4,83,0.00,CLR,SKC,0.00,515.0,WeatherDisplay:10.37,2013-03-28 15:16:00,
2013-03-28 09:21:00,68.5,62.8,30.17,ESE,113,10.4,10.4,82,0.00,CLR,SKC,0.00,367.0,WeatherDisplay:10.37,2013-03-28 15:21:00,
2013-03-28 09:26:00,68.3,62.6,30.17,ESE,119,10.4,10.4,82,0.00,CLR,SKC,0.00,325.0,WeatherDisplay:10.37,2013-03-28 15:26:00,
2013-03-28 09:31:00,68.2,62.5,30.17,ESE,123,12.7,12.7,82,0.00,CLR,SKC,0.00,262.0,WeatherDisplay:10.37,2013-03-28 15:31:00,
2013-03-28 09:36:00,68.1,62.4,30.17,SE,130,9.2,9.2,82,0.00,CLR,SKC,0.00,246.0,WeatherDisplay:10.37,2013-03-28 15:36:00,
2013-03-28 09:41:00,67.9,62.2,30.18,SE,137,12.7,12.7,82,0.00,CLR,SKC,0.00,188.0,WeatherDisplay:10.37,2013-03-28 15:41:00,
2013-03-28 09:46:00,67.7,62.3,30.18,SE,126,6.9,6.9,83,0.00,CLR,SKC,0.00,299.0,WeatherDisplay:10.37,2013-03-28 15:46:00,
2013-03-28 09:51:00,67.9,62.5,30.18,East,88,10.4,10.4,83,0.00,CLR,SKC,0.00,443.0,WeatherDisplay:10.37,2013-03-28 15:51:00,
2013-03-28 09:56:00,68.1,62.4,30.18,ESE,107,15.0,15.0,82,0.00,CLR,SKC,0.00,517.0,WeatherDisplay:10.37,2013-03-28 15:56:00,
2013-03-28 10:01:00,68.4,62.3,30.18,East,101,15.0,15.0,81,0.00,CLR,SKC,0.00,520.0,WeatherDisplay:10.37,2013-03-28 16:01:00,
2013-03-28 10:06:00,68.5,62.4,30.18,SE,130,15.0,15.0,81,0.00,CLR,SKC,0.00,322.0,WeatherDisplay:10.37,2013-03-28 16:06:00,
2013-03-28 10:11:00,68.5,62.4,30.18,ESE,105,11.5,11.5,81,0.00,CLR,SKC,0.00,429.0,WeatherDisplay:10.37,2013-03-28 16:11:00,
2013-03-28 10:16:00,68.6,62.5,30.18,East,94,13.0,13.0,81,0.00,CLR,SKC,0.00,473.0,WeatherDisplay:10.37,2013-03-28 16:16:00,
2013-03-28 10:21:00,68.4,62.3,30.18,SE,137,12.7,12.7,81,0.00,CLR,SKC,0.00,148.0,WeatherDisplay:10.37,2013-03-28 16:21:00,
2013-03-28 10:26:00,68.0,62.3,30.19,ESE,112,12.0,12.0,82,0.00,CLR,SKC,0.00,272.0,WeatherDisplay:10.37,2013-03-28 16:26:00,
2013-03-28 10:31:00,68.1,62.7,30.19,ESE,103,11.5,11.5,83,0.00,CLR,SKC,0.00,626.0,WeatherDisplay:10.37,2013-03-28 16:31:00,
2013-03-28 10:36:00,68.4,62.7,30.19,ESE,119,10.0,10.0,82,0.00,CLR,SKC,0.00,513.0,WeatherDisplay:10.37,2013-03-28 16:36:00,
2013-03-28 10:41:00,68.5,62.4,30.19,SE,125,15.0,15.0,81,0.00,CLR,SKC,0.00,214.0,WeatherDisplay:10.37,2013-03-28 16:41:00,
2013-03-28 10:46:00,68.1,62.4,30.19,East,97,11.5,11.5,82,0.00,CLR,SKC,0.00,265.0,WeatherDisplay:10.37,2013-03-28 16:46:00,
2013-03-28 10:52:00,68.1,62.7,30.19,ESE,119,11.0,11.0,83,0.00,CLR,SKC,0.00,373.0,WeatherDisplay:10.37,2013-03-28 16:52:00,
2013-03-28 10:57:00,68.3,62.9,30.19,ESE,121,13.0,13.0,83,0.00,CLR,SKC,0.00,269.0,WeatherDisplay:10.37,2013-03-28 16:57:00,
2013-03-28 11:02:00,68.1,62.7,30.19,SE,138,6.9,6.9,83,0.00,CLR,SKC,0.00,262.0,WeatherDisplay:10.37,2013-03-28 17:02:00,
2013-03-28 11:07:00,68.1,62.7,30.19,ESE,116,10.4,10.4,83,0.00,CLR,SKC,0.00,362.0,WeatherDisplay:10.37,2013-03-28 17:07:00,
2013-03-28 11:12:00,68.1,62.7,30.19,ESE,110,11.5,11.5,83,0.00,CLR,SKC,0.00,346.0,WeatherDisplay:10.37,2013-03-28 17:12:00,
2013-03-28 11:17:00,68.1,62.7,30.19,SE,127,10.4,10.4,83,0.00,CLR,SKC,0.00,301.0,WeatherDisplay:10.37,2013-03-28 17:17:00,
2013-03-28 11:22:00,68.0,62.6,30.19,SE,126,10.4,10.4,83,0.00,CLR,SKC,0.00,330.0,WeatherDisplay:10.37,2013-03-28 17:22:00,
2013-03-28 11:27:00,67.8,62.8,30.19,ESE,113,7.0,7.0,84,0.00,CLR,SKC,0.00,297.0,WeatherDisplay:10.37,2013-03-28 17:27:00,
2013-03-28 11:32:00,67.9,62.9,30.19,ESE,105,9.2,9.2,84,0.00,CLR,SKC,0.00,297.0,WeatherDisplay:10.37,2013-03-28 17:32:00,
2013-03-28 11:37:00,67.6,62.6,30.19,ESE,114,11.5,11.5,84,0.00,CLR,SKC,0.00,279.0,WeatherDisplay:10.37,2013-03-28 17:37:00,
2013-03-28 11:42:00,67.6,62.6,30.18,ESE,113,10.4,10.4,84,0.00,CLR,SKC,0.00,274.0,WeatherDisplay:10.37,2013-03-28 17:42:00,
2013-03-28 11:47:00,67.6,62.6,30.18,ESE,102,12.7,12.7,84,0.00,CLR,SKC,0.00,272.0,WeatherDisplay:10.37,2013-03-28 17:47:00,
2013-03-28 11:52:00,67.7,62.7,30.18,SE,124,10.4,10.4,84,0.00,CLR,SKC,0.00,313.0,WeatherDisplay:10.37,2013-03-28 17:52:00,
2013-03-28 11:57:00,67.9,62.9,30.18,ESE,120,10.4,10.4,84,0.00,CLR,SKC,0.00,373.0,WeatherDisplay:10.37,2013-03-28 17:57:00,
2013-03-28 12:02:00,67.9,62.9,30.18,ESE,112,11.5,11.5,84,0.00,CLR,SKC,0.00,390.0,WeatherDisplay:10.37,2013-03-28 18:02:00,
2013-03-28 12:07:00,68.0,63.0,30.18,ESE,121,10.4,10.4,84,0.00,CLR,SKC,0.00,406.0,WeatherDisplay:10.37,2013-03-28 18:07:00,
2013-03-28 12:12:00,68.2,62.8,30.17,ESE,102,10.4,10.4,83,0.00,CLR,SKC,0.00,461.0,WeatherDisplay:10.37,2013-03-28 18:12:00,
2013-03-28 12:17:00,68.3,62.9,30.17,ESE,116,11.5,11.5,83,0.00,CLR,SKC,0.00,464.0,WeatherDisplay:10.37,2013-03-28 18:17:00,
2013-03-28 12:22:00,68.3,62.9,30.17,ESE,111,16.1,16.1,83,0.00,CLR,SKC,0.00,434.0,WeatherDisplay:10.37,2013-03-28 18:22:00,
2013-03-28 12:27:00,68.2,62.8,30.17,East,93,12.7,12.7,83,0.00,CLR,SKC,0.00,411.0,WeatherDisplay:10.37,2013-03-28 18:27:00,
2013-03-28 12:32:00,68.2,62.8,30.17,SE,129,13.0,13.0,83,0.00,CLR,SKC,0.00,396.0,WeatherDisplay:10.37,2013-03-28 18:32:00,
2013-03-28 12:37:00,68.2,62.8,30.17,East,90,11.5,11.5,83,0.00,CLR,SKC,0.00,422.0,WeatherDisplay:10.37,2013-03-28 18:37:00,
2013-03-28 12:42:00,68.1,62.7,30.17,ESE,123,11.0,11.0,83,0.00,CLR,SKC,0.00,462.0,WeatherDisplay:10.37,2013-03-28 18:42:00,
2013-03-28 12:47:00,68.1,62.7,30.17,ESE,116,15.0,15.0,83,0.00,CLR,SKC,0.00,543.0,WeatherDisplay:10.37,2013-03-28 18:47:00,
2013-03-28 12:52:00,68.5,63.1,30.17,ESE,116,10.4,10.4,83,0.00,CLR,SKC,0.00,629.0,WeatherDisplay:10.37,2013-03-28 18:52:00,
2013-03-28 12:57:00,68.7,63.0,30.16,ESE,109,13.8,13.8,82,0.00,CLR,SKC,0.00,487.0,WeatherDisplay:10.37,2013-03-28 18:57:00,
2013-03-28 13:02:00,68.7,63.0,30.16,SE,128,12.7,12.7,82,0.00,CLR,SKC,0.00,471.0,WeatherDisplay:10.37,2013-03-28 19:02:00,
2013-03-28 13:07:00,68.6,62.9,30.16,SE,130,15.0,15.0,82,0.00,CLR,SKC,0.00,585.0,WeatherDisplay:10.37,2013-03-28 19:07:00,
2013-03-28 13:12:00,68.6,62.9,30.16,ESE,123,12.7,12.7,82,0.00,CLR,SKC,0.00,485.0,WeatherDisplay:10.37,2013-03-28 19:12:00,
2013-03-28 13:17:00,68.8,63.1,30.16,ESE,122,11.5,11.5,82,0.00,CLR,SKC,0.00,485.0,WeatherDisplay:10.37,2013-03-28 19:17:00,
2013-03-28 13:22:00,68.9,63.2,30.16,SE,126,11.5,11.5,82,0.00,CLR,SKC,0.00,591.0,WeatherDisplay:10.37,2013-03-28 19:22:00,
2013-03-28 13:27:00,69.0,63.3,30.15,ESE,109,10.4,10.4,82,0.00,CLR,SKC,0.00,587.0,WeatherDisplay:10.37,2013-03-28 19:27:00,
2013-03-28 13:32:00,68.9,63.2,30.15,East,92,12.7,12.7,82,0.00,CLR,SKC,0.00,555.0,WeatherDisplay:10.37,2013-03-28 19:32:00,
2013-03-28 13:37:00,69.0,62.9,30.15,ESE,116,12.7,12.7,81,0.00,CLR,SKC,0.00,455.0,WeatherDisplay:10.37,2013-03-28 19:37:00,
2013-03-28 13:42:00,69.1,63.0,30.15,East,96,11.5,11.5,81,0.00,CLR,SKC,0.00,473.0,WeatherDisplay:10.37,2013-03-28 19:42:00,
2013-03-28 13:47:00,69.0,62.9,30.15,ESE,119,13.8,13.8,81,0.00,CLR,SKC,0.00,555.0,WeatherDisplay:10.37,2013-03-28 19:47:00,
2013-03-28 13:52:00,69.0,62.9,30.15,ESE,111,11.5,11.5,81,0.00,CLR,SKC,0.00,462.0,WeatherDisplay:10.37,2013-03-28 19:52:00,
2013-03-28 13:57:00,68.9,62.8,30.14,East,96,15.0,15.0,81,0.00,CLR,SKC,0.00,462.0,WeatherDisplay:10.37,2013-03-28 19:57:00,
2013-03-28 14:02:00,68.7,63.0,30.14,ESE,118,12.7,12.7,82,0.00,CLR,SKC,0.00,348.0,WeatherDisplay:10.37,2013-03-28 20:02:00,
2013-03-28 14:07:00,68.7,63.0,30.14,ESE,119,12.7,12.7,82,0.00,CLR,SKC,0.00,269.0,WeatherDisplay:10.37,2013-03-28 20:07:00,
2013-03-28 14:13:00,68.6,62.9,30.14,ESE,102,11.5,11.5,82,0.00,CLR,SKC,0.00,334.0,WeatherDisplay:10.37,2013-03-28 20:13:00,
2013-03-28 14:18:00,68.3,62.9,30.14,SE,142,12.0,12.0,83,0.00,CLR,SKC,0.00,371.0,WeatherDisplay:10.37,2013-03-28 20:18:00,
2013-03-28 14:23:00,68.3,62.9,30.14,ENE,70,10.4,10.4,83,0.00,CLR,SKC,0.00,290.0,WeatherDisplay:10.37,2013-03-28 20:23:00,
2013-03-28 14:28:00,68.4,63.0,30.13,East,99,10.4,10.4,83,0.00,CLR,SKC,0.00,220.0,WeatherDisplay:10.37,2013-03-28 20:28:00,
2013-03-28 14:33:00,68.4,63.0,30.13,East,92,10.4,10.4,83,0.00,CLR,SKC,0.00,288.0,WeatherDisplay:10.37,2013-03-28 20:33:00,
2013-03-28 14:38:00,68.1,62.7,30.13,East,90,13.8,13.8,83,0.00,CLR,SKC,0.00,369.0,WeatherDisplay:10.37,2013-03-28 20:38:00,
2013-03-28 14:43:00,68.1,62.7,30.13,SE,126,12.7,12.7,83,0.00,CLR,SKC,0.00,427.0,WeatherDisplay:10.37,2013-03-28 20:43:00,
2013-03-28 14:48:00,68.3,62.9,30.13,East,97,17.3,17.3,83,0.00,CLR,SKC,0.00,381.0,WeatherDisplay:10.37,2013-03-28 20:48:00,
2013-03-28 14:53:00,68.4,63.0,30.13,ESE,113,12.0,12.0,83,0.00,CLR,SKC,0.00,330.0,WeatherDisplay:10.37,2013-03-28 20:53:00,
2013-03-28 14:58:00,68.3,62.9,30.12,SE,126,11.5,11.5,83,0.00,CLR,SKC,0.00,253.0,WeatherDisplay:10.37,2013-03-28 20:58:00,
2013-03-28 15:03:00,68.0,62.6,30.12,ESE,113,13.8,13.8,83,0.00,CLR,SKC,0.00,262.0,WeatherDisplay:10.37,2013-03-28 21:03:00,
2013-03-28 15:08:00,67.8,62.8,30.12,ESE,123,12.7,12.7,84,0.00,CLR,SKC,0.00,230.0,WeatherDisplay:10.37,2013-03-28 21:08:00,
2013-03-28 15:13:00,67.6,62.6,30.12,ESE,119,12.7,12.7,84,0.00,CLR,SKC,0.00,272.0,WeatherDisplay:10.37,2013-03-28 21:13:00,
2013-03-28 15:18:00,67.7,63.0,30.12,ESE,107,12.7,12.7,85,0.00,CLR,SKC,0.00,290.0,WeatherDisplay:10.37,2013-03-28 21:18:00,
2013-03-28 15:23:00,67.9,62.9,30.12,East,94,12.7,12.7,84,0.00,CLR,SKC,0.00,260.0,WeatherDisplay:10.37,2013-03-28 21:23:00,
2013-03-28 15:28:00,67.7,62.7,30.11,SE,136,13.0,13.0,84,0.00,CLR,SKC,0.00,200.0,WeatherDisplay:10.37,2013-03-28 21:28:00,
2013-03-28 15:33:00,67.6,62.6,30.11,East,101,14.0,14.0,84,0.00,CLR,SKC,0.00,220.0,WeatherDisplay:10.37,2013-03-28 21:33:00,
2013-03-28 15:38:00,67.6,62.9,30.11,ESE,113,7.0,7.0,85,0.00,CLR,SKC,0.00,214.0,WeatherDisplay:10.37,2013-03-28 21:38:00,
2013-03-28 15:43:00,67.5,62.8,30.11,ESE,117,12.7,12.7,85,0.00,CLR,SKC,0.00,223.0,WeatherDisplay:10.37,2013-03-28 21:43:00,
2013-03-28 15:48:00,67.4,62.7,30.11,SE,125,11.5,11.5,85,0.00,CLR,SKC,0.00,167.0,WeatherDisplay:10.37,2013-03-28 21:48:00,
2013-03-28 15:53:00,67.4,62.7,30.11,East,97,11.5,11.5,85,0.00,CLR,SKC,0.00,223.0,WeatherDisplay:10.37,2013-03-28 21:53:00,
2013-03-28 15:58:00,67.4,62.7,30.11,SE,127,11.5,11.5,85,0.00,CLR,SKC,0.00,214.0,WeatherDisplay:10.37,2013-03-28 21:58:00,
2013-03-28 16:03:00,67.4,62.7,30.11,ESE,112,11.5,11.5,85,0.00,CLR,SKC,0.00,178.0,WeatherDisplay:10.37,2013-03-28 22:03:00,
2013-03-28 16:08:00,67.5,62.5,30.11,SE,130,11.5,11.5,84,0.00,CLR,SKC,0.00,192.0,WeatherDisplay:10.37,2013-03-28 22:08:00,
2013-03-28 16:13:00,67.4,62.4,30.12,East,80,10.4,10.4,84,0.00,CLR,SKC,0.00,188.0,WeatherDisplay:10.37,2013-03-28 22:13:00,
2013-03-28 16:18:00,67.4,62.4,30.12,SE,130,11.5,11.5,84,0.00,CLR,SKC,0.00,169.0,WeatherDisplay:10.37,2013-03-28 22:18:00,
2013-03-28 16:23:00,67.4,62.7,30.12,ESE,119,10.4,10.4,85,0.00,CLR,SKC,0.00,162.0,WeatherDisplay:10.37,2013-03-28 22:23:00,
2013-03-28 16:28:00,67.3,62.3,30.12,ESE,104,11.5,11.5,84,0.00,CLR,SKC,0.00,153.0,WeatherDisplay:10.37,2013-03-28 22:28:00,
2013-03-28 16:33:00,67.4,62.4,30.12,ESE,107,11.0,11.0,84,0.00,CLR,SKC,0.00,153.0,WeatherDisplay:10.37,2013-03-28 22:33:00,
2013-03-28 16:38:00,67.4,62.4,30.12,ESE,109,10.4,10.4,84,0.00,CLR,SKC,0.00,151.0,WeatherDisplay:10.37,2013-03-28 22:38:00,
2013-03-28 16:43:00,67.4,62.4,30.11,ESE,122,13.0,13.0,84,0.00,CLR,SKC,0.00,134.0,WeatherDisplay:10.37,2013-03-28 22:43:00,
2013-03-28 16:48:00,67.3,62.3,30.11,SE,129,11.5,11.5,84,0.00,CLR,SKC,0.00,128.0,WeatherDisplay:10.37,2013-03-28 22:48:00,
2013-03-28 16:53:00,67.4,62.4,30.11,ESE,118,10.0,10.0,84,0.00,CLR,SKC,0.00,128.0,WeatherDisplay:10.37,2013-03-28 22:53:00,
2013-03-28 16:58:00,67.4,62.4,30.11,SE,133,6.9,6.9,84,0.00,CLR,SKC,0.00,128.0,WeatherDisplay:10.37,2013-03-28 22:58:00,
2013-03-28 17:03:00,67.4,62.4,30.11,ESE,110,11.5,11.5,84,0.00,CLR,SKC,0.00,134.0,WeatherDisplay:10.37,2013-03-28 23:03:00,
2013-03-28 17:08:00,67.4,62.4,30.11,SE,128,10.4,10.4,84,0.00,CLR,SKC,0.00,128.0,WeatherDisplay:10.37,2013-03-28 23:08:00,
2013-03-28 17:13:00,67.3,62.3,30.11,ESE,116,9.2,9.2,84,0.00,CLR,SKC,0.00,142.0,WeatherDisplay:10.37,2013-03-28 23:13:00,
2013-03-28 17:18:00,67.3,62.3,30.11,East,101,10.4,10.4,84,0.00,CLR,SKC,0.00,132.0,WeatherDisplay:10.37,2013-03-28 23:18:00,
2013-03-28 17:23:00,67.3,62.3,30.11,SE,136,11.5,11.5,84,0.00,CLR,SKC,0.00,118.0,WeatherDisplay:10.37,2013-03-28 23:23:00,
2013-03-28 17:28:00,67.2,62.5,30.11,ESE,116,11.0,11.0,85,0.00,CLR,SKC,0.00,105.0,WeatherDisplay:10.37,2013-03-28 23:28:00,
2013-03-28 17:33:00,67.2,62.5,30.11,ESE,115,9.2,9.5,85,0.00,CLR,SKC,0.00,100.0,WeatherDisplay:10.37,2013-03-28 23:33:00,
2013-03-28 17:38:00,67.0,62.3,30.11,SE,129,11.5,11.5,85,0.00,CLR,SKC,0.00,91.0,WeatherDisplay:10.37,2013-03-28 23:38:00,
2013-03-28 17:43:00,67.0,62.3,30.11,ESE,103,11.5,11.5,85,0.00,CLR,SKC,0.00,81.0,WeatherDisplay:10.37,2013-03-28 23:43:00,
2013-03-28 17:48:00,66.9,62.2,30.11,SE,134,11.5,11.5,85,0.00,CLR,SKC,0.00,81.0,WeatherDisplay:10.37,2013-03-28 23:48:00,
2013-03-28 17:53:00,66.8,62.5,30.11,ESE,123,10.4,10.4,86,0.00,CLR,SKC,0.00,67.0,WeatherDisplay:10.37,2013-03-28 23:53:00,
2013-03-28 17:58:00,66.8,62.5,30.11,SE,124,9.2,9.2,86,0.00,CLR,SKC,0.00,56.0,WeatherDisplay:10.37,2013-03-28 23:58:00,
2013-03-28 18:03:00,66.7,62.4,30.11,SE,130,11.5,11.5,86,0.00,CLR,SKC,0.00,46.0,WeatherDisplay:10.37,2013-03-29 00:03:00,
2013-03-28 18:08:00,66.7,62.4,30.11,ESE,118,11.0,11.0,86,0.00,CLR,SKC,0.00,33.0,WeatherDisplay:10.37,2013-03-29 00:08:00,
2013-03-28 18:13:00,66.6,62.3,30.12,East,100,8.1,8.1,86,0.00,CLR,SKC,0.00,28.0,WeatherDisplay:10.37,2013-03-29 00:13:00,
2013-03-28 18:18:00,66.5,62.5,30.12,ESE,118,10.4,10.4,87,0.00,CLR,SKC,0.00,30.0,WeatherDisplay:10.37,2013-03-29 00:18:00,
2013-03-28 18:23:00,66.4,62.4,30.12,SE,129,9.2,9.2,87,0.00,CLR,SKC,0.00,23.0,WeatherDisplay:10.37,2013-03-29 00:23:00,
2013-03-28 18:28:00,66.3,62.3,30.13,ESE,117,10.4,10.4,87,0.00,CLR,SKC,0.00,14.0,WeatherDisplay:10.37,2013-03-29 00:28:00,
2013-03-28 18:33:00,66.2,62.2,30.13,ESE,123,9.2,9.2,87,0.00,CLR,SKC,0.00,12.0,WeatherDisplay:10.37,2013-03-29 00:33:00,
2013-03-28 18:38:00,66.2,62.2,30.13,ESE,113,9.2,9.2,87,0.00,CLR,SKC,0.00,7.0,WeatherDisplay:10.37,2013-03-29 00:38:00,
2013-03-28 18:43:00,66.1,62.1,30.13,ESE,105,9.2,9.2,87,0.00,CLR,SKC,0.00,0.0,WeatherDisplay:10.37,2013-03-29 00:43:00,
2013-03-28 18:48:00,66.0,62.0,30.13,ESE,109,9.2,9.2,87,0.00,CLR,SKC,0.00,0.0,WeatherDisplay:10.37,2013-03-29 00:48:00,
2013-03-28 18:53:00,66.0,62.0,30.13,ESE,111,9.2,9.2,87,0.00,CLR,SKC,0.00,0.0,WeatherDisplay:10.37,2013-03-29 00:53:00,
2013-03-28 18:58:00,65.9,61.9,30.13,SE,129,6.9,6.9,87,0.00,CLR,SKC,0.00,0.0,WeatherDisplay:10.37,2013-03-29 00:58:00,
2013-03-28 19:03:00,65.9,62.2,30.13,ESE,108,5.8,5.8,88,0.00,CLR,SKC,0.00,0.0,WeatherDisplay:10.37,2013-03-29 01:03:00,
2013-03-28 19:08:00,65.8,62.1,30.13,ESE,105,10.4,10.4,88,0.00,CLR,SKC,0.00,0.0,WeatherDisplay:10.37,2013-03-29 01:08:00,
2013-03-28 19:13:00,65.8,62.1,30.13,SE,126,7.0,7.0,88,0.00,CLR,SKC,0.00,0.0,WeatherDisplay:10.37,2013-03-29 01:13:00,
2013-03-28 19:18:00,65.7,62.0,30.13,ESE,119,6.9,6.9,88,0.00,CLR,SKC,0.00,0.0,WeatherDisplay:10.37,2013-03-29 01:18:00,
2013-03-28 19:23:00,65.7,62.0,30.13,SE,126,9.2,9.2,88,0.00,CLR,SKC,0.00,0.0,WeatherDisplay:10.37,2013-03-29 01:23:00,
2013-03-28 19:28:00,65.7,62.0,30.13,ESE,119,9.2,9.2,88,0.00,CLR,SKC,0.00,0.0,WeatherDisplay:10.37,2013-03-29 01:28:00,
2013-03-28 19:33:00,65.7,62.0,30.13,ESE,108,9.2,9.2,88,0.00,CLR,SKC,0.00,0.0,WeatherDisplay:10.37,2013-03-29 01:33:00,
2013-03-28 19:38:00,65.7,62.0,30.13,SE,144,7.0,7.0,88,0.00,CLR,SKC,0.00,0.0,WeatherDisplay:10.37,2013-03-29 01:38:00,
2013-03-28 19:43:00,65.7,62.0,30.14,ESE,121,5.8,5.8,88,0.00,CLR,SKC,0.00,0.0,WeatherDisplay:10.37,2013-03-29 01:43:00,
2013-03-28 19:48:00,65.7,62.0,30.14,SE,126,7.0,7.0,88,0.00,CLR,SKC,0.00,0.0,WeatherDisplay:10.37,2013-03-29 01:48:00,
2013-03-28 19:53:00,65.7,62.0,30.14,SE,130,6.9,6.9,88,0.00,CLR,SKC,0.00,0.0,WeatherDisplay:10.37,2013-03-29 01:53:00,
2013-03-28 19:59:00,65.7,62.0,30.14,ESE,115,11.5,11.5,88,0.00,CLR,SKC,0.00,0.0,WeatherDisplay:10.37,2013-03-29 01:59:00,
2013-03-28 20:04:00,65.7,62.0,30.14,ESE,113,7.0,7.0,88,0.00,CLR,SKC,0.00,0.0,WeatherDisplay:10.37,2013-03-29 02:04:00,
2013-03-28 20:09:00,65.6,61.9,30.14,SE,129,7.0,7.0,88,0.00,CLR,SKC,0.00,0.0,WeatherDisplay:10.37,2013-03-29 02:09:00,
2013-03-28 20:14:00,65.6,61.9,30.14,ESE,112,9.2,9.2,88,0.00,CLR,SKC,0.00,0.0,WeatherDisplay:10.37,2013-03-29 02:14:00,
2013-03-28 20:19:00,65.6,61.9,30.14,ESE,111,6.9,6.9,88,0.00,CLR,SKC,0.00,0.0,WeatherDisplay:10.37,2013-03-29 02:19:00,
2013-03-28 20:24:00,65.5,62.2,30.14,ESE,119,6.9,6.9,89,0.00,CLR,SKC,0.00,0.0,WeatherDisplay:10.37,2013-03-29 02:24:00,
2013-03-28 20:29:00,65.4,62.1,30.14,ESE,108,10.4,10.4,89,0.00,CLR,SKC,0.00,0.0,WeatherDisplay:10.37,2013-03-29 02:29:00,
2013-03-28 20:34:00,65.4,62.1,30.14,ESE,123,6.9,6.9,89,0.00,CLR,SKC,0.00,0.0,WeatherDisplay:10.37,2013-03-29 02:34:00,
2013-03-28 20:39:00,65.3,62.0,30.14,ESE,123,5.8,5.8,89,0.00,CLR,SKC,0.00,0.0,WeatherDisplay:10.37,2013-03-29 02:39:00,
2013-03-28 20:44:00,65.2,61.9,30.14,SE,127,6.9,6.9,89,0.00,CLR,SKC,0.00,0.0,WeatherDisplay:10.37,2013-03-29 02:44:00,
2013-03-28 20:49:00,65.2,61.9,30.14,ESE,119,7.0,7.0,89,0.00,CLR,SKC,0.00,0.0,WeatherDisplay:10.37,2013-03-29 02:49:00,
2013-03-28 20:54:00,65.2,61.9,30.14,SE,142,4.6,4.6,89,0.00,CLR,SKC,0.00,0.0,WeatherDisplay:10.37,2013-03-29 02:54:00,
2013-03-28 20:59:00,65.2,61.9,30.14,ESE,122,4.6,4.6,89,0.00,CLR,SKC,0.00,0.0,WeatherDisplay:10.37,2013-03-29 02:59:00,
2013-03-28 21:04:00,65.2,61.9,30.14,ESE,123,6.9,6.9,89,0.00,CLR,SKC,0.00,0.0,WeatherDisplay:10.37,2013-03-29 03:04:00,
2013-03-28 21:09:00,65.2,61.9,30.14,ESE,118,7.0,7.0,89,0.00,CLR,SKC,0.00,0.0,WeatherDisplay:10.37,2013-03-29 03:09:00,
2013-03-28 21:14:00,65.2,62.2,30.15,ESE,105,8.1,8.1,90,0.00,CLR,SKC,0.00,0.0,WeatherDisplay:10.37,2013-03-29 03:14:00,
2013-03-28 21:19:00,65.2,61.9,30.15,SE,132,6.9,6.9,89,0.00,CLR,SKC,0.00,0.0,WeatherDisplay:10.37,2013-03-29 03:19:00,
2013-03-28 21:24:00,65.2,62.2,30.15,SE,127,7.0,7.0,90,0.00,CLR,SKC,0.00,0.0,WeatherDisplay:10.37,2013-03-29 03:24:00,
2013-03-28 21:29:00,65.1,62.1,30.15,ESE,123,9.0,9.0,90,0.00,CLR,SKC,0.00,0.0,WeatherDisplay:10.37,2013-03-29 03:29:00,
2013-03-28 21:34:00,65.1,62.1,30.15,ESE,118,4.6,4.6,90,0.00,CLR,SKC,0.00,0.0,WeatherDisplay:10.37,2013-03-29 03:34:00,
2013-03-28 21:39:00,65.1,62.1,30.15,SE,136,4.6,4.6,90,0.00,CLR,SKC,0.00,0.0,WeatherDisplay:10.37,2013-03-29 03:39:00,
2013-03-28 21:44:00,65.1,62.1,30.15,SE,130,8.1,8.1,90,0.00,CLR,SKC,0.00,0.0,WeatherDisplay:10.37,2013-03-29 03:44:00,
2013-03-28 21:49:00,65.1,62.1,30.15,SE,129,5.8,5.8,90,0.00,CLR,SKC,0.00,0.0,WeatherDisplay:10.37,2013-03-29 03:49:00,
2013-03-28 21:54:00,65.0,62.0,30.15,ESE,121,4.6,4.6,90,0.00,CLR,SKC,0.00,0.0,WeatherDisplay:10.37,2013-03-29 03:54:00,
2013-03-28 21:59:00,65.0,62.3,30.16,SE,126,6.9,6.9,91,0.00,CLR,SKC,0.00,0.0,WeatherDisplay:10.37,2013-03-29 03:59:00,
2013-03-28 22:00:00,65.0,62.3,30.16,SE,128,6.9,6.9,91,0.00,CLR,SKC,0.00,0.0,WeatherDisplay:10.37,2013-03-29 04:00:00,
2013-03-28 22:05:00,65.0,62.3,30.16,ESE,114,6.0,6.0,91,0.00,CLR,SKC,0.00,0.0,WeatherDisplay:10.37,2013-03-29 04:05:00,
2013-03-28 22:10:00,64.9,62.2,30.16,SE,130,4.6,4.6,91,0.00,CLR,SKC,0.00,0.0,WeatherDisplay:10.37,2013-03-29 04:10:00,
2013-03-28 22:15:00,64.9,62.2,30.16,ESE,122,5.8,5.8,91,0.00,CLR,SKC,0.00,0.0,WeatherDisplay:10.37,2013-03-29 04:15:00,
2013-03-28 22:20:00,64.8,62.1,30.16,East,101,5.8,5.8,91,0.00,CLR,SKC,0.00,0.0,WeatherDisplay:10.37,2013-03-29 04:20:00,
2013-03-28 22:25:00,64.8,62.1,30.16,East,94,6.9,6.9,91,0.00,CLR,SKC,0.00,0.0,WeatherDisplay:10.37,2013-03-29 04:25:00,
2013-03-28 22:30:00,64.8,62.1,30.16,East,97,5.8,5.8,91,0.00,CLR,SKC,0.00,0.0,WeatherDisplay:10.37,2013-03-29 04:30:00,
2013-03-28 22:35:00,64.7,62.0,30.16,ESE,119,4.6,4.6,91,0.00,CLR,SKC,0.00,0.0,WeatherDisplay:10.37,2013-03-29 04:35:00,
2013-03-28 22:40:00,64.7,62.0,30.16,ESE,117,5.8,5.8,91,0.00,CLR,SKC,0.00,0.0,WeatherDisplay:10.37,2013-03-29 04:40:00,
2013-03-28 22:45:00,64.7,62.0,30.16,SE,125,5.8,5.8,91,0.00,CLR,SKC,0.00,0.0,WeatherDisplay:10.37,2013-03-29 04:45:00,
2013-03-28 22:50:00,64.7,62.0,30.16,ESE,113,6.9,6.9,91,0.00,CLR,SKC,0.00,0.0,WeatherDisplay:10.37,2013-03-29 04:50:00,
2013-03-28 22:55:00,64.7,62.0,30.16,ESE,119,6.9,6.9,91,0.00,CLR,SKC,0.00,0.0,WeatherDisplay:10.37,2013-03-29 04:55:00,
2013-03-28 23:00:00,64.7,62.0,30.15,ESE,110,8.0,8.0,91,0.00,CLR,SKC,0.00,0.0,WeatherDisplay:10.37,2013-03-29 05:00:00,
2013-03-28 23:05:00,64.8,62.1,30.15,ESE,117,9.2,9.2,91,0.00,CLR,SKC,0.00,0.0,WeatherDisplay:10.37,2013-03-29 05:05:00,
2013-03-28 23:10:00,64.7,62.0,30.15,ESE,120,5.8,5.8,91,0.00,CLR,SKC,0.00,0.0,WeatherDisplay:10.37,2013-03-29 05:10:00,
2013-03-28 23:15:00,64.7,62.3,30.15,ESE,115,6.9,6.9,92,0.00,CLR,SKC,0.00,0.0,WeatherDisplay:10.37,2013-03-29 05:15:00,
2013-03-28 23:20:00,64.7,62.3,30.15,ESE,105,6.9,6.9,92,0.00,CLR,SKC,0.00,0.0,WeatherDisplay:10.37,2013-03-29 05:20:00,
2013-03-28 23:25:00,64.7,62.3,30.15,SE,126,5.8,5.8,92,0.00,CLR,SKC,0.00,0.0,WeatherDisplay:10.37,2013-03-29 05:25:00,
2013-03-28 23:30:00,64.6,62.2,30.15,ESE,113,4.6,4.6,92,0.00,CLR,SKC,0.00,0.0,WeatherDisplay:10.37,2013-03-29 05:30:00,
2013-03-28 23:35:00,64.5,62.1,30.15,ESE,114,4.0,4.0,92,0.00,CLR,SKC,0.00,0.0,WeatherDisplay:10.37,2013-03-29 05:35:00,
2013-03-28 23:40:00,64.5,62.1,30.15,ESE,111,5.8,5.8,92,0.00,CLR,SKC,0.00,0.0,WeatherDisplay:10.37,2013-03-29 05:40:00,
2013-03-28 23:45:00,64.5,62.1,30.14,ESE,119,6.9,6.9,92,0.00,CLR,SKC,0.00,0.0,WeatherDisplay:10.37,2013-03-29 05:45:00,
2013-03-28 23:50:00,64.5,62.1,30.14,ESE,120,4.6,4.6,92,0.00,CLR,SKC,0.00,0.0,WeatherDisplay:10.37,2013-03-29 05:50:00,
2013-03-28 23:55:00,64.5,62.1,30.14,ESE,119,5.0,5.0,92,0.00,CLR,SKC,0.00,0.0,WeatherDisplay:10.37,2013-03-29 05:55:00,